Lid_Strength_Index
3 3 3 2 3 3 4 4 2 3 3 1 1 1 1 1 1 1 2 1 2 3 2 2 2 1 2 2 3 3 3 4 4 4 4 4 3 3 3 3 1 0 0
3 4 4 4 3 3 3 3 2 1 1 1 1 1 1 1 1 1 2 1 2 2 2 2 2 1 2 2 2 3 3 3 4 4 4 4 4 3 3 4 2 1 1
3 2 4 4 4 3 3 3 2 2 2 2 2 2 2 1 1 1 1 1 1 2 2 2 2 2 2 2 2 2 2 2 2 3 3 4 4 3 3 3 2 4 1
3 3 4 4 3 3 3 3 3 3 4 4 3 2 2 2 2 2 2 3 3 2 1 1 1 2 2 2 2 2 2 2 2 3 3 3 4 3 4 4 4 5 5
4 5 4 4 5 5 5 4 4 3 3 3 3 3 2 2 2 5 4 4 5 4 4 4 4 3 2 2 2 3 3 3 3 3 3 3 4 5 6 6 6 6 5
5 5 4 4 4 5 4 5 5 4 4 4 4 4 4 3 5 5 5 6 6 6 6 6 5 4 4 4 4 4 3 4 4 3 3 4 3 6 6 6 6 7 7
4 3 3 4 4 4 5 5 5 4 4 4 4 5 5 5 6 9 8 7 7 7 7 7 6 5 5 4 3 3 4 4 4 5 5 4 4 3 3 5 7 5 5
4 4 4 4 5 5 5 5 5 5 5 5 5 5 5 4 7 9 8 8 8 8 8 8 7 5 5 5 5 6 6 6 6 6 7 6 5 5 5 4 5 5 5
4 4 4 5 5 5 6 6 6 6 6 6 5 6 6 6 7 8 8 8 8 9 8 6 6 7 8 9 8 8 8 7 6 6 7 7 8 8 6 4 5 6 7
5 5 5 5 5 6 6 6 6 6 6 6 6 6 6 8 8 8 8 8 8 9 8 9 8 8 8 8 7 7 7 6 6 5 6 6 5 5 6 4 4 7 7
5 5 5 6 7 7 7 8 8 8 8 8 8 8 8 8 7 8 9 9 10 10 10 9 7 8 8 8 9 7 7 7 6 5 6 6 5 4 3 4 4 3 5
6 7 8 9 8 8 10 10 10 10 10 9 10 9 8 7 8 9 10 10 9 9 9 8 8 9 10 10 10 9 9 9 7 7 7 7 6 4 3 2 2 1 1
8 9 9 10 10 10 11 11 11 11 11 10 10 10 9 9 10 9 10 10 9 8 8 9 9 10 10 9 9 9 9 8 8 8 7 7 5 4 3 3 2 1 2
10 11 11 11 11 12 11 11 10 11 11 11 12 11 11 10 9 8 8 8 9 9 9 9 8 9 9 9 9 8 7 6 7 8 7 6 5 4 4 4 5 4 5
12 13 13 13 13 12 11 11 12 12 12 12 12 11 10 10 9 9 10 10 10 10 10 10 10 10 10 9 8 7 6 5 5 6 6 6 5 4 4 5 5 5 4
14 13 14 13 13 13 14 13 12 12 12 12 11 11 10 10 10 11 11 11 12 12 11 11 11 10 10 10 9 7 5 5 5 5 5 5 6 5 5 4 3 3 4
15 15 15 14 15 14 13 13 13 12 11 11 12 12 12 12 11 12 12 12 12 12 11 11 11 11 10 9 8 7 6 5 4 4 5 5 4 3 4 3 3 3 3
14 14 15 14 14 14 13 13 13 13 13 12 12 12 13 12 12 12 12 12 11 11 11 11 11 10 9 9 7 6 5 5 5 4 4 4 3 3 3 4 3 3 3
14 14 14 14 13 14 14 14 14 14 14 13 13 13 14 13 12 12 11 10 10 10 10 9 8 7 7 6 5 5 5 5 5 4 3 3 3 4 4 4 3 8 6
13 14 14 14 14 15 15 15 15 15 15 15 15 15 15 14 13 13 12 11 11 10 9 8 8 7 6 5 4 4 4 4 4 4 3 3 3 3 3 4 3 4 3
13 13 15 14 15 14 15 15 15 15 16 16 16 15 16 15 14 14 13 13 12 11 9 8 8 7 5 4 4 4 4 4 4 4 3 3 3 4 4 4 4 4 4
13 14 14 15 15 15 15 15 15 15 15 16 16 15 15 15 15 14 13 13 12 11 9 7 7 6 6 5 4 4 4 4 4 4 4 4 4 4 4 4 4 4 3
13 14 14 14 14 15 15 14 14 14 14 14 14 15 16 16 16 15 14 13 13 12 10 8 7 6 5 5 4 5 6 7 6 6 5 4 4 4 4 4 4 4 4
13 14 14 15 15 15 15 14 14 14 14 14 14 14 15 15 15 15 15 13 13 12 11 10 8 7 6 5 5 4 7 9 7 7 6 6 6 6 5 3 3 3 3
14 14 14 13 13 13 13 13 14 14 14 14 14 14 14 15 15 15 15 14 13 13 12 11 9 9 7 9 9 9 12 14 11 13 7 6 6 5 5 3 3 3 3
15 14 14 12 13 13 14 14 15 15 15 14 14 14 14 14 14 14 14 15 15 13 13 13 12 11 9 11 12 13 14 14 13 14 10 6 6 6 5 3 2 2 3